| time (UTC) | temp F | wind direction | speed MPH | gust MPH | rain 1hr in | rain 24hr in | rain mn in | humidity % | barometer mb |
| 20260905203016 | 64 | 274 | 3.0 | 6.0 | 0.00 | 0.20 | 0.12 | 85 | 1015.8 |
| 20260905202945 | 64 | 274 | 3.0 | 6.0 | 0.00 | 0.20 | 0.12 | 85 | 1015.8 |
| 20260905202458 | 64 | 309 | 4.0 | 6.0 | 0.00 | 0.20 | 0.12 | 85 | 1015.7 |
| 20260905202438 | 64 | 309 | 5.0 | 6.0 | 0.00 | 0.20 | 0.12 | 85 | 1015.7 |
| 20260905201931 | 64 | 316 | 4.0 | 7.0 | 0.00 | 0.20 | 0.12 | 85 | 1015.7 |
| 20260905201424 | 65 | 357 | 1.0 | 7.0 | 0.00 | 0.20 | 0.12 | 85 | 1015.7 |
| 20260905200907 | 64 | 257 | 3.0 | 7.0 | 0.00 | 0.20 | 0.12 | 85 | 1015.7 |
| 20260905200410 | 65 | 263 | 5.0 | 7.0 | 0.00 | 0.20 | 0.12 | 84 | 1015.7 |
| 20260905200350 | 65 | 263 | 6.0 | 7.0 | 0.00 | 0.20 | 0.12 | 84 | 1015.7 |
| 20260905195903 | 65 | 296 | 2.0 | 6.0 | 0.00 | 0.20 | 0.12 | 85 | 1015.8 |
| 20260905195833 | 65 | 296 | 4.0 | 6.0 | 0.00 | 0.20 | 0.12 | 85 | 1015.8 |
| 20260905195356 | 65 | 0 | 0.0 | 6.0 | 0.00 | 0.20 | 0.12 | 85 | 1015.8 |
| 20260905195316 | 65 | 0 | 0.0 | 6.0 | 0.00 | 0.20 | 0.12 | 85 | 1015.8 |
| 20260905194849 | 65 | 242 | 2.0 | 7.0 | 0.00 | 0.20 | 0.12 | 85 | 1015.8 |
| 20260905194759 | 65 | 298 | 2.0 | 7.0 | 0.00 | 0.20 | 0.12 | 85 | 1015.8 |
| 20260905194343 | 65 | 0 | 0.0 | 7.0 | 0.00 | 0.20 | 0.12 | 86 | 1015.9 |
| 20260905194242 | 65 | 264 | 3.0 | 7.0 | 0.00 | 0.20 | 0.12 | 86 | 1015.9 |
| 20260905193835 | 65 | 296 | 2.0 | 7.0 | 0.00 | 0.20 | 0.12 | 87 | 1015.9 |
| 20260905193725 | 65 | 271 | 2.0 | 7.0 | 0.00 | 0.20 | 0.12 | 87 | 1015.9 |
| 20260905193330 | 64 | 0 | 0.0 | 7.0 | 0.00 | 0.20 | 0.12 | 87 | 1015.9 |
| 20260905193208 | 64 | 194 | 5.0 | 7.0 | 0.00 | 0.20 | 0.12 | 87 | 1016.1 |
| 20260905192821 | 64 | 239 | 4.0 | 7.0 | 0.00 | 0.20 | 0.12 | 88 | 1016.0 |
| 20260905192651 | 64 | 170 | 3.0 | 7.0 | 0.00 | 0.20 | 0.12 | 88 | 1016.0 |
| 20260905192314 | 65 | 0 | 0.0 | 6.0 | 0.00 | 0.20 | 0.12 | 88 | 1016.1 |
| 20260905192134 | 65 | 147 | 2.0 | 6.0 | 0.00 | 0.20 | 0.12 | 88 | 1016.1 |
| 20260905191807 | 65 | 295 | 2.0 | 6.0 | 0.00 | 0.20 | 0.12 | 89 | 1015.9 |
| 20260905191617 | 64 | 295 | 4.0 | 6.0 | 0.00 | 0.20 | 0.12 | 89 | 1016.0 |
| 20260905191300 | 64 | 278 | 4.0 | 5.0 | 0.00 | 0.20 | 0.12 | 89 | 1016.0 |
| 20260905191100 | 64 | 261 | 2.0 | 5.0 | 0.00 | 0.20 | 0.12 | 89 | 1016.0 |
| 20260905190753 | 64 | 294 | 2.0 | 5.0 | 0.00 | 0.20 | 0.12 | 90 | 1016.0 |
| 20260905190543 | 64 | 0 | 0.0 | 5.0 | 0.00 | 0.20 | 0.12 | 91 | 1016.1 |
| 20260905190246 | 64 | 278 | 1.0 | 5.0 | 0.00 | 0.20 | 0.12 | 92 | 1016.1 |
| 20260905185739 | 63 | 240 | 3.0 | 5.0 | 0.00 | 0.20 | 0.12 | 92 | 1016.0 |
| 20260905185509 | 63 | 0 | 0.0 | 5.0 | 0.00 | 0.20 | 0.12 | 92 | 1016.0 |
| 20260905184952 | 63 | 288 | 2.0 | 6.0 | 0.00 | 0.20 | 0.12 | 93 | 1016.0 |
| 20260905184725 | 63 | 277 | 1.0 | 6.0 | 0.00 | 0.20 | 0.12 | 92 | 1016.1 |
| 20260905184435 | 63 | 261 | 1.0 | 6.0 | 0.00 | 0.20 | 0.12 | 93 | 1016.1 |
| 20260905184218 | 63 | 275 | 1.0 | 6.0 | 0.00 | 0.20 | 0.12 | 93 | 1016.1 |
| 20260905183918 | 64 | 275 | 1.0 | 6.0 | 0.00 | 0.20 | 0.12 | 93 | 1016.0 |
| 20260905183711 | 64 | 275 | 2.0 | 6.0 | 0.00 | 0.20 | 0.12 | 93 | 1016.1 |
| 20260905183401 | 64 | 264 | 1.0 | 6.0 | 0.00 | 0.20 | 0.12 | 94 | 1016.1 |
| 20260905183204 | 64 | 224 | 3.0 | 5.0 | 0.00 | 0.20 | 0.12 | 94 | 1016.0 |
| 20260905182844 | 64 | 0 | 0.0 | 5.0 | 0.00 | 0.20 | 0.12 | 95 | 1016.0 |
| 20260905182657 | 63 | 270 | 2.0 | 5.0 | 0.00 | 0.20 | 0.12 | 95 | 1015.9 |
| 20260905182327 | 63 | 0 | 0.0 | 5.0 | 0.00 | 0.20 | 0.12 | 96 | 1015.9 |
| 20260905182150 | 63 | 264 | 2.0 | 5.0 | 0.00 | 0.20 | 0.12 | 96 | 1015.9 |
| 20260905181643 | 63 | 245 | 2.0 | 4.0 | 0.00 | 0.20 | 0.12 | 97 | 1016.0 |
| 20260905181253 | 63 | 274 | 1.0 | 3.0 | 0.00 | 0.20 | 0.12 | 98 | 1016.0 |
| 20260905181136 | 62 | 274 | 1.0 | 3.0 | 0.00 | 0.20 | 0.12 | 98 | 1016.0 |
| 20260905180736 | 62 | 191 | 1.0 | 3.0 | 0.00 | 0.20 | 0.12 | 98 | 1016.0 |
| 20260905180629 | 62 | 191 | 3.0 | 3.0 | 0.00 | 0.20 | 0.12 | 98 | 1016.0 |
| 20260905180219 | 62 | 292 | 2.0 | 5.0 | 0.00 | 0.20 | 0.12 | 99 | 1016.0 |
| 20260905180124 | 62 | 292 | 2.0 | 5.0 | 0.00 | 0.20 | 0.12 | 99 | 1016.1 |
| 20260905175702 | 62 | 226 | 2.0 | 5.0 | 0.00 | 0.20 | 0.12 | 99 | 1016.0 |
| 20260905175615 | 62 | 226 | 3.0 | 5.0 | 0.00 | 0.20 | 0.12 | 99 | 1016.1 |
| 20260905175145 | 62 | 0 | 0.0 | 5.0 | 0.00 | 0.20 | 0.12 | 100 | 1016.1 |
| 20260905175108 | 62 | 0 | 0.0 | 5.0 | 0.00 | 0.20 | 0.12 | 100 | 1016.1 |
| 20260905174628 | 61 | 214 | 2.0 | 5.0 | 0.00 | 0.20 | 0.12 | 100 | 1016.0 |
| 20260905174601 | 61 | 214 | 2.0 | 5.0 | 0.00 | 0.20 | 0.12 | 100 | 1016.0 |
| 20260905174111 | 60 | 0 | 0.0 | 3.0 | 0.00 | 0.20 | 0.12 | 100 | 1016.0 |
| 20260905174054 | 60 | 0 | 0.0 | 3.0 | 0.00 | 0.20 | 0.12 | 100 | 1016.0 |
| 20260905173554 | 60 | 207 | 0.0 | 1.0 | 0.00 | 0.20 | 0.12 | 100 | 1016.0 |
| 20260905173547 | 60 | 207 | 0.0 | 1.0 | 0.00 | 0.20 | 0.12 | 100 | 1016.0 |
| 20260905173038 | 60 | 0 | 0.0 | 0.0 | 0.00 | 0.20 | 0.12 | 100 | 1016.0 |
| 20260905172533 | 60 | 207 | 1.0 | 6.0 | 0.00 | 0.20 | 0.12 | 100 | 1015.9 |
| 20260905172520 | 60 | 207 | 1.0 | 6.0 | 0.00 | 0.20 | 0.12 | 100 | 1015.9 |
| 20260905172026 | 60 | 204 | 2.0 | 6.0 | 0.00 | 0.20 | 0.12 | 100 | 1015.8 |
| 20260905172003 | 60 | 204 | 2.0 | 6.0 | 0.00 | 0.20 | 0.12 | 100 | 1015.8 |
| 20260905171519 | 60 | 0 | 0.0 | 6.0 | 0.00 | 0.20 | 0.12 | 100 | 1015.8 |
| 20260905171446 | 60 | 0 | 0.0 | 6.0 | 0.00 | 0.20 | 0.12 | 100 | 1015.8 |
| 20260905171012 | 59 | 175 | 4.0 | 6.0 | 0.00 | 0.20 | 0.12 | 100 | 1015.8 |
| 20260905170929 | 59 | 175 | 6.0 | 6.0 | 0.00 | 0.20 | 0.12 | 100 | 1015.9 |
| 20260905170505 | 59 | 0 | 0.0 | 0.0 | 0.00 | 0.20 | 0.12 | 100 | 1015.8 |
| 20260905170412 | 59 | 0 | 0.0 | 0.0 | 0.00 | 0.20 | 0.12 | 100 | 1015.9 |
| 20260905165958 | 59 | 0 | 0.0 | 0.0 | 0.00 | 0.20 | 0.12 | 100 | 1015.8 |
| 20260905165855 | 59 | 0 | 0.0 | 0.0 | 0.00 | 0.20 | 0.12 | 100 | 1015.9 |
| 20260905165451 | 59 | 0 | 0.0 | 0.0 | 0.00 | 0.20 | 0.12 | 100 | 1015.8 |
| 20260905164944 | 59 | 0 | 0.0 | 6.0 | 0.00 | 0.20 | 0.12 | 100 | 1015.9 |
| 20260905164821 | 59 | 0 | 0.0 | 6.0 | 0.00 | 0.20 | 0.12 | 100 | 1015.9 |
| 20260905164437 | 59 | 0 | 0.0 | 6.0 | 0.00 | 0.20 | 0.12 | 100 | 1015.9 |
| 20260905164304 | 59 | 0 | 0.0 | 6.0 | 0.00 | 0.20 | 0.12 | 100 | 1015.9 |
| 20260905163930 | 59 | 0 | 0.0 | 6.0 | 0.00 | 0.20 | 0.12 | 100 | 1015.8 |
| 20260905163747 | 59 | 0 | 0.0 | 6.0 | 0.00 | 0.20 | 0.12 | 100 | 1015.8 |
| 20260905163424 | 59 | 0 | 0.0 | 6.0 | 0.00 | 0.20 | 0.12 | 100 | 1015.9 |
| 20260905163230 | 59 | 186 | 4.0 | 6.0 | 0.00 | 0.20 | 0.12 | 100 | 1015.9 |
| 20260905162916 | 59 | 0 | 0.0 | 3.0 | 0.00 | 0.20 | 0.12 | 100 | 1015.9 |
| 20260905162713 | 59 | 106 | 1.0 | 3.0 | 0.00 | 0.20 | 0.12 | 100 | 1015.9 |
| 20260905162409 | 59 | 0 | 0.0 | 0.0 | 0.00 | 0.20 | 0.12 | 100 | 1015.8 |
| 20260905161902 | 59 | 0 | 0.0 | 0.0 | 0.00 | 0.20 | 0.12 | 100 | 1015.8 |
| 20260905161639 | 59 | 0 | 0.0 | 0.0 | 0.00 | 0.20 | 0.12 | 100 | 1015.8 |
| 20260905161355 | 59 | 0 | 0.0 | 0.0 | 0.00 | 0.20 | 0.12 | 100 | 1015.8 |
| 20260905161122 | 58 | 0 | 0.0 | 0.0 | 0.00 | 0.20 | 0.12 | 100 | 1015.8 |
| 20260905160848 | 58 | 0 | 0.0 | 0.0 | 0.00 | 0.20 | 0.12 | 100 | 1015.8 |
| 20260905160605 | 58 | 0 | 0.0 | 0.0 | 0.00 | 0.20 | 0.12 | 100 | 1015.8 |
| 20260905160047 | 57 | 0 | 0.0 | 0.0 | 0.00 | 0.20 | 0.12 | 100 | 1015.8 |
| 20260905155834 | 57 | 0 | 0.0 | 0.0 | 0.00 | 0.20 | 0.12 | 100 | 1015.8 |
| 20260905155531 | 57 | 0 | 0.0 | 0.0 | 0.00 | 0.20 | 0.12 | 100 | 1015.8 |
| 20260905155014 | 57 | 0 | 0.0 | 0.0 | 0.00 | 0.20 | 0.12 | 100 | 1015.9 |
| 20260905154822 | 57 | 0 | 0.0 | 0.0 | 0.00 | 0.20 | 0.12 | 100 | 1015.9 |
| 20260905154457 | 56 | 0 | 0.0 | 0.0 | 0.00 | 0.20 | 0.12 | 100 | 1015.9 |
| 20260905154313 | 56 | 0 | 0.0 | 0.0 | 0.00 | 0.20 | 0.12 | 100 | 1015.9 |
| 20260905153939 | 56 | 0 | 0.0 | 0.0 | 0.00 | 0.20 | 0.12 | 100 | 1016.0 |
| 20260905153806 | 56 | 0 | 0.0 | 0.0 | 0.00 | 0.20 | 0.12 | 100 | 1016.0 |
| 20260905153423 | 56 | 0 | 0.0 | 0.0 | 0.00 | 0.20 | 0.12 | 100 | 1016.0 |
| 20260905153259 | 56 | 0 | 0.0 | 0.0 | 0.00 | 0.20 | 0.12 | 100 | 1016.0 |
| 20260905152905 | 56 | 0 | 0.0 | 3.0 | 0.00 | 0.20 | 0.12 | 100 | 1015.9 |
| 20260905152752 | 56 | 0 | 0.0 | 3.0 | 0.00 | 0.20 | 0.12 | 100 | 1015.9 |
| 20260905152348 | 56 | 0 | 0.0 | 3.0 | 0.00 | 0.20 | 0.12 | 100 | 1015.9 |
| 20260905152245 | 56 | 0 | 0.0 | 3.0 | 0.00 | 0.20 | 0.12 | 100 | 1015.9 |
| 20260905151831 | 56 | 0 | 0.0 | 3.0 | 0.00 | 0.20 | 0.12 | 100 | 1016.0 |
| 20260905151738 | 56 | 128 | 1.0 | 3.0 | 0.00 | 0.20 | 0.12 | 100 | 1016.0 |
| 20260905151314 | 56 | 0 | 0.0 | 0.0 | 0.00 | 0.20 | 0.12 | 100 | 1015.9 |
| 20260905151231 | 56 | 0 | 0.0 | 0.0 | 0.00 | 0.20 | 0.12 | 100 | 1015.9 |
| 20260905150758 | 56 | 0 | 0.0 | 0.0 | 0.00 | 0.27 | 0.12 | 100 | 1015.9 |
| 20260905150724 | 56 | 0 | 0.0 | 0.0 | 0.00 | 0.27 | 0.12 | 100 | 1015.8 |
| 20260905150240 | 56 | 0 | 0.0 | 0.0 | 0.00 | 0.27 | 0.12 | 100 | 1015.8 |
| 20260905150217 | 56 | 0 | 0.0 | 0.0 | 0.00 | 0.27 | 0.12 | 100 | 1015.8 |
| 20260905145723 | 56 | 0 | 0.0 | 0.0 | 0.00 | 0.27 | 0.12 | 100 | 1015.8 |
| 20260905145709 | 56 | 0 | 0.0 | 0.0 | 0.00 | 0.27 | 0.12 | 100 | 1015.8 |
| 20260905145203 | 56 | 0 | 0.0 | 0.0 | 0.00 | 0.27 | 0.12 | 100 | 1015.8 |
| 20260905144649 | 56 | 0 | 0.0 | 0.0 | 0.00 | 0.27 | 0.12 | 100 | 1015.8 |
| 20260905144148 | 56 | 0 | 0.0 | 0.0 | 0.00 | 0.27 | 0.12 | 100 | 1015.8 |
| 20260905144133 | 56 | 0 | 0.0 | 0.0 | 0.00 | 0.27 | 0.12 | 100 | 1015.8 |
| 20260905143642 | 56 | 0 | 0.0 | 0.0 | 0.00 | 0.27 | 0.12 | 100 | 1015.7 |
| 20260905143615 | 56 | 0 | 0.0 | 0.0 | 0.00 | 0.27 | 0.12 | 100 | 1015.8 |
| 20260905143134 | 56 | 0 | 0.0 | 0.0 | 0.00 | 0.27 | 0.12 | 100 | 1015.7 |
| 20260905143058 | 56 | 0 | 0.0 | 0.0 | 0.00 | 0.27 | 0.12 | 100 | 1015.7 |
| 20260905142627 | 56 | 0 | 0.0 | 0.0 | 0.00 | 0.27 | 0.12 | 100 | 1015.7 |
| 20260905142541 | 56 | 0 | 0.0 | 0.0 | 0.00 | 0.27 | 0.12 | 100 | 1015.7 |
| 20260905142122 | 56 | 0 | 0.0 | 0.0 | 0.00 | 0.27 | 0.12 | 100 | 1015.6 |
| 20260905142026 | 56 | 0 | 0.0 | 0.0 | 0.00 | 0.27 | 0.12 | 100 | 1015.6 |
| 20260905141613 | 56 | 0 | 0.0 | 0.0 | 0.00 | 0.27 | 0.12 | 100 | 1015.6 |
| 20260905141507 | 56 | 0 | 0.0 | 0.0 | 0.00 | 0.27 | 0.12 | 100 | 1015.6 |
| 20260905141106 | 55 | 0 | 0.0 | 0.0 | 0.00 | 0.27 | 0.12 | 100 | 1015.6 |
| 20260905140950 | 55 | 0 | 0.0 | 0.0 | 0.00 | 0.27 | 0.12 | 100 | 1015.6 |
| 20260905140433 | 55 | 0 | 0.0 | 0.0 | 0.00 | 0.33 | 0.12 | 100 | 1015.6 |
| 20260905140052 | 55 | 0 | 0.0 | 0.0 | 0.00 | 0.33 | 0.12 | 100 | 1015.5 |
| 20260905135916 | 55 | 0 | 0.0 | 0.0 | 0.00 | 0.33 | 0.12 | 100 | 1015.6 |
| 20260905135545 | 55 | 0 | 0.0 | 0.0 | 0.00 | 0.33 | 0.12 | 100 | 1015.5 |
| 20260905135359 | 55 | 0 | 0.0 | 0.0 | 0.00 | 0.33 | 0.12 | 100 | 1015.5 |
| 20260905135038 | 55 | 0 | 0.0 | 0.0 | 0.00 | 0.33 | 0.12 | 100 | 1015.5 |
| 20260905134844 | 55 | 0 | 0.0 | 0.0 | 0.00 | 0.33 | 0.12 | 100 | 1015.5 |
| 20260905134531 | 55 | 0 | 0.0 | 0.0 | 0.00 | 0.33 | 0.12 | 100 | 1015.5 |
| 20260905134325 | 55 | 0 | 0.0 | 0.0 | 0.00 | 0.33 | 0.12 | 100 | 1015.5 |
| 20260905134141 | 55 | 0 | 0.0 | 0.0 | 0.00 | 0.33 | 0.12 | 100 | 1015.5 |
| 20260905134024 | 55 | 0 | 0.0 | 0.0 | 0.00 | 0.33 | 0.12 | 100 | 1015.5 |
| 20260905133517 | 55 | 0 | 0.0 | 0.0 | 0.00 | 0.33 | 0.12 | 100 | 1015.4 |
| 20260905133251 | 55 | 0 | 0.0 | 0.0 | 0.00 | 0.33 | 0.12 | 100 | 1015.4 |
| 20260905133010 | 55 | 0 | 0.0 | 0.0 | 0.00 | 0.33 | 0.12 | 100 | 1015.5 |
| 20260905132735 | 55 | 0 | 0.0 | 0.0 | 0.00 | 0.33 | 0.12 | 100 | 1015.4 |
| 20260905132503 | 55 | 0 | 0.0 | 0.0 | 0.00 | 0.33 | 0.12 | 100 | 1015.5 |
| 20260905132217 | 55 | 0 | 0.0 | 0.0 | 0.00 | 0.33 | 0.12 | 100 | 1015.4 |
| 20260905131956 | 55 | 0 | 0.0 | 0.0 | 0.00 | 0.33 | 0.12 | 100 | 1015.4 |
| 20260905131700 | 55 | 0 | 0.0 | 0.0 | 0.00 | 0.33 | 0.12 | 100 | 1015.3 |
| 20260905131450 | 55 | 0 | 0.0 | 0.0 | 0.00 | 0.33 | 0.12 | 100 | 1015.4 |
| 20260905131143 | 55 | 0 | 0.0 | 0.0 | 0.00 | 0.33 | 0.12 | 100 | 1015.4 |
| 20260905130942 | 55 | 0 | 0.0 | 0.0 | 0.00 | 0.33 | 0.12 | 100 | 1015.4 |
| 20260905130626 | 55 | 0 | 0.0 | 0.0 | 0.00 | 0.50 | 0.12 | 100 | 1015.3 |
| 20260905130435 | 55 | 0 | 0.0 | 0.0 | 0.00 | 0.50 | 0.12 | 100 | 1015.3 |
| 20260905130109 | 55 | 0 | 0.0 | 0.0 | 0.00 | 0.50 | 0.12 | 100 | 1015.3 |
| 20260905125928 | 55 | 0 | 0.0 | 0.0 | 0.00 | 0.50 | 0.12 | 100 | 1015.2 |
| 20260905125552 | 55 | 0 | 0.0 | 0.0 | 0.01 | 0.50 | 0.12 | 100 | 1015.2 |
| 20260905125421 | 55 | 0 | 0.0 | 0.0 | 0.01 | 0.50 | 0.12 | 100 | 1015.2 |
| 20260905125035 | 55 | 0 | 0.0 | 0.0 | 0.01 | 0.50 | 0.12 | 100 | 1015.2 |
| 20260905124914 | 55 | 0 | 0.0 | 0.0 | 0.01 | 0.50 | 0.12 | 100 | 1015.2 |
| 20260905124518 | 55 | 0 | 0.0 | 0.0 | 0.08 | 0.50 | 0.12 | 100 | 1015.2 |
| 20260905124407 | 55 | 0 | 0.0 | 0.0 | 0.08 | 0.50 | 0.12 | 100 | 1015.2 |
| 20260905124001 | 55 | 0 | 0.0 | 0.0 | 0.08 | 0.50 | 0.12 | 100 | 1015.2 |
| 20260905123900 | 55 | 0 | 0.0 | 0.0 | 0.08 | 0.50 | 0.12 | 100 | 1015.2 |
| 20260905123444 | 55 | 0 | 0.0 | 3.0 | 0.08 | 0.50 | 0.12 | 100 | 1015.2 |
| 20260905123353 | 55 | 0 | 0.0 | 3.0 | 0.08 | 0.50 | 0.12 | 100 | 1015.2 |
| 20260905122927 | 55 | 0 | 0.0 | 3.0 | 0.08 | 0.50 | 0.12 | 100 | 1015.2 |
| 20260905122846 | 55 | 0 | 0.0 | 3.0 | 0.08 | 0.50 | 0.12 | 100 | 1015.2 |
| 20260905122410 | 55 | 0 | 0.0 | 3.0 | 0.08 | 0.50 | 0.12 | 100 | 1015.2 |
| 20260905121853 | 55 | 0 | 0.0 | 0.0 | 0.08 | 0.50 | 0.12 | 100 | 1015.1 |
| 20260905121832 | 55 | 0 | 0.0 | 0.0 | 0.08 | 0.50 | 0.12 | 100 | 1015.1 |
| 20260905121325 | 55 | 0 | 0.0 | 0.0 | 0.08 | 0.50 | 0.12 | 100 | 1015.0 |
| 20260905120819 | 55 | 0 | 0.0 | 0.0 | 0.08 | 0.50 | 0.12 | 100 | 1015.0 |
| 20260905120311 | 55 | 0 | 0.0 | 0.0 | 0.08 | 0.44 | 0.12 | 100 | 1015.0 |
| 20260905120303 | 55 | 0 | 0.0 | 0.0 | 0.08 | 0.44 | 0.12 | 100 | 1015.0 |
| 20260905115804 | 55 | 0 | 0.0 | 0.0 | 0.07 | 0.44 | 0.12 | 100 | 1014.9 |
| 20260905115745 | 55 | 0 | 0.0 | 0.0 | 0.07 | 0.44 | 0.12 | 100 | 1014.9 |
| 20260905115257 | 55 | 0 | 0.0 | 0.0 | 0.07 | 0.44 | 0.12 | 100 | 1015.0 |
| 20260905114711 | 55 | 0 | 0.0 | 0.0 | 0.00 | 0.44 | 0.11 | 100 | 1015.0 |
| 20260905114243 | 55 | 0 | 0.0 | 0.0 | 0.00 | 0.44 | 0.08 | 100 | 1015.0 |
| 20260905114154 | 55 | 0 | 0.0 | 0.0 | 0.00 | 0.44 | 0.07 | 100 | 1015.1 |
| 20260905113736 | 55 | 0 | 0.0 | 0.0 | 0.00 | 0.44 | 0.04 | 100 | 1015.1 |
| 20260905113637 | 55 | 0 | 0.0 | 0.0 | 0.00 | 0.44 | 0.04 | 100 | 1015.1 |
| 20260905113229 | 55 | 0 | 0.0 | 0.0 | 0.00 | 0.44 | 0.04 | 100 | 1015.1 |
| 20260905113124 | 55 | 0 | 0.0 | 0.0 | 0.00 | 0.44 | 0.04 | 100 | 1015.1 |
| 20260905112723 | 55 | 0 | 0.0 | 0.0 | 0.00 | 0.44 | 0.04 | 100 | 1015.0 |
| 20260905112603 | 55 | 0 | 0.0 | 0.0 | 0.00 | 0.44 | 0.04 | 100 | 1015.1 |
| 20260905112215 | 55 | 0 | 0.0 | 0.0 | 0.00 | 0.44 | 0.04 | 100 | 1015.0 |
| 20260905112046 | 55 | 0 | 0.0 | 0.0 | 0.00 | 0.44 | 0.04 | 100 | 1015.0 |
| 20260905111708 | 55 | 0 | 0.0 | 0.0 | 0.00 | 0.44 | 0.04 | 100 | 1015.0 |
| 20260905111529 | 55 | 0 | 0.0 | 0.0 | 0.00 | 0.44 | 0.04 | 100 | 1014.9 |
| 20260905111201 | 55 | 0 | 0.0 | 0.0 | 0.00 | 0.44 | 0.04 | 100 | 1015.0 |
| 20260905111014 | 55 | 0 | 0.0 | 0.0 | 0.00 | 0.44 | 0.04 | 100 | 1014.9 |
| 20260905110654 | 55 | 0 | 0.0 | 0.0 | 0.00 | 0.46 | 0.04 | 100 | 1014.9 |
| 20260905110455 | 55 | 0 | 0.0 | 0.0 | 0.00 | 0.46 | 0.04 | 100 | 1015.0 |
| 20260905110147 | 55 | 0 | 0.0 | 0.0 | 0.00 | 0.46 | 0.04 | 100 | 1014.9 |
| 20260905105938 | 55 | 0 | 0.0 | 0.0 | 0.00 | 0.46 | 0.04 | 100 | 1014.9 |
| 20260905105640 | 55 | 0 | 0.0 | 0.0 | 0.00 | 0.46 | 0.04 | 100 | 1014.9 |
| 20260905105421 | 55 | 0 | 0.0 | 0.0 | 0.00 | 0.46 | 0.04 | 100 | 1014.9 |
| 20260905105133 | 55 | 0 | 0.0 | 0.0 | 0.00 | 0.46 | 0.04 | 100 | 1014.9 |
| 20260905104904 | 55 | 0 | 0.0 | 0.0 | 0.00 | 0.46 | 0.04 | 100 | 1014.9 |
| 20260905104626 | 55 | 0 | 0.0 | 0.0 | 0.00 | 0.46 | 0.04 | 100 | 1014.9 |
| 20260905104347 | 55 | 0 | 0.0 | 0.0 | 0.00 | 0.46 | 0.04 | 100 | 1014.9 |
| 20260905104120 | 55 | 0 | 0.0 | 0.0 | 0.00 | 0.46 | 0.04 | 100 | 1014.9 |
| 20260905103830 | 55 | 0 | 0.0 | 0.0 | 0.00 | 0.46 | 0.04 | 100 | 1014.9 |
| 20260905103612 | 55 | 0 | 0.0 | 0.0 | 0.00 | 0.46 | 0.04 | 100 | 1014.9 |
| 20260905103313 | 55 | 0 | 0.0 | 0.0 | 0.00 | 0.46 | 0.04 | 100 | 1014.9 |
| 20260905103105 | 55 | 0 | 0.0 | 0.0 | 0.00 | 0.46 | 0.04 | 100 | 1014.9 |
| 20260905102558 | 55 | 0 | 0.0 | 1.0 | 0.00 | 0.46 | 0.04 | 100 | 1014.9 |
| 20260905102239 | 55 | 0 | 0.0 | 1.0 | 0.00 | 0.46 | 0.04 | 100 | 1014.9 |
| 20260905102051 | 55 | 0 | 0.0 | 1.0 | 0.00 | 0.46 | 0.04 | 100 | 1014.9 |
| 20260905101723 | 55 | 0 | 0.0 | 1.0 | 0.00 | 0.46 | 0.04 | 100 | 1014.9 |
| 20260905101544 | 55 | 0 | 0.0 | 1.0 | 0.00 | 0.46 | 0.04 | 100 | 1014.9 |
| 20260905101205 | 55 | 319 | 0.0 | 1.0 | 0.00 | 0.46 | 0.04 | 100 | 1014.9 |
| 20260905101037 | 55 | 319 | 1.0 | 1.0 | 0.00 | 0.46 | 0.04 | 100 | 1014.9 |
| 20260905100648 | 55 | 0 | 0.0 | 0.0 | 0.00 | 0.46 | 0.04 | 100 | 1014.9 |
| 20260905100530 | 55 | 0 | 0.0 | 0.0 | 0.00 | 0.46 | 0.04 | 100 | 1014.9 |
| 20260905100131 | 55 | 0 | 0.0 | 0.0 | 0.00 | 0.46 | 0.04 | 100 | 1014.9 |
| 20260905100023 | 55 | 0 | 0.0 | 0.0 | 0.00 | 0.46 | 0.04 | 100 | 1014.8 |
| 20260905095614 | 55 | 0 | 0.0 | 0.0 | 0.00 | 0.46 | 0.04 | 100 | 1014.8 |
| 20260905095516 | 55 | 0 | 0.0 | 0.0 | 0.00 | 0.46 | 0.04 | 100 | 1014.8 |
| 20260905095057 | 55 | 0 | 0.0 | 0.0 | 0.00 | 0.46 | 0.04 | 100 | 1014.8 |
| 20260905095009 | 55 | 0 | 0.0 | 0.0 | 0.00 | 0.46 | 0.04 | 100 | 1014.8 |
| 20260905094540 | 55 | 0 | 0.0 | 0.0 | 0.00 | 0.46 | 0.04 | 100 | 1014.8 |
| 20260905094502 | 55 | 0 | 0.0 | 0.0 | 0.00 | 0.46 | 0.04 | 100 | 1014.8 |
| 20260905094023 | 55 | 0 | 0.0 | 0.0 | 0.00 | 0.46 | 0.04 | 100 | 1014.8 |
| 20260905093506 | 55 | 0 | 0.0 | 0.0 | 0.00 | 0.46 | 0.04 | 100 | 1014.8 |
| 20260905093449 | 55 | 0 | 0.0 | 0.0 | 0.00 | 0.46 | 0.04 | 100 | 1014.8 |
| 20260905092953 | 55 | 0 | 0.0 | 0.0 | 0.00 | 0.46 | 0.04 | 100 | 1014.9 |
| 20260905092941 | 55 | 0 | 0.0 | 0.0 | 0.00 | 0.46 | 0.04 | 100 | 1014.9 |
| 20260905092432 | 55 | 0 | 0.0 | 0.0 | 0.00 | 0.46 | 0.04 | 100 | 1014.9 |
| 20260905091927 | 55 | 0 | 0.0 | 0.0 | 0.00 | 0.46 | 0.04 | 100 | 1014.9 |
| 20260905091917 | 55 | 0 | 0.0 | 0.0 | 0.00 | 0.46 | 0.04 | 100 | 1014.9 |
| 20260905091420 | 55 | 0 | 0.0 | 0.0 | 0.00 | 0.46 | 0.04 | 100 | 1014.8 |
| 20260905091358 | 55 | 0 | 0.0 | 0.0 | 0.00 | 0.46 | 0.04 | 100 | 1014.8 |
| 20260905090913 | 55 | 0 | 0.0 | 0.0 | 0.00 | 0.46 | 0.04 | 100 | 1014.7 |
| 20260905090842 | 55 | 0 | 0.0 | 0.0 | 0.00 | 0.46 | 0.04 | 100 | 1014.7 |
| 20260905090406 | 55 | 0 | 0.0 | 0.0 | 0.00 | 0.47 | 0.04 | 100 | 1014.7 |
| 20260905090324 | 55 | 0 | 0.0 | 0.0 | 0.00 | 0.47 | 0.04 | 100 | 1014.7 |
| 20260905085859 | 55 | 0 | 0.0 | 0.0 | 0.00 | 0.47 | 0.04 | 100 | 1014.6 |
| 20260905085352 | 55 | 0 | 0.0 | 0.0 | 0.00 | 0.47 | 0.04 | 100 | 1014.6 |
| 20260905085250 | 55 | 0 | 0.0 | 0.0 | 0.00 | 0.47 | 0.04 | 100 | 1014.6 |
| 20260905084845 | 55 | 0 | 0.0 | 0.0 | 0.00 | 0.47 | 0.04 | 100 | 1014.5 |
| 20260905084734 | 55 | 0 | 0.0 | 0.0 | 0.00 | 0.47 | 0.04 | 100 | 1014.5 |
| 20260905084216 | 55 | 0 | 0.0 | 0.0 | 0.00 | 0.47 | 0.04 | 100 | 1014.5 |
| 20260905083831 | 55 | 0 | 0.0 | 0.0 | 0.00 | 0.47 | 0.04 | 100 | 1014.5 |
| 20260905083659 | 55 | 0 | 0.0 | 0.0 | 0.00 | 0.47 | 0.04 | 100 | 1014.5 |
| 20260905083324 | 55 | 0 | 0.0 | 0.0 | 0.00 | 0.47 | 0.04 | 100 | 1014.5 |
| 20260905083142 | 55 | 0 | 0.0 | 0.0 | 0.00 | 0.47 | 0.04 | 100 | 1014.5 |
| 20260905082817 | 55 | 0 | 0.0 | 0.0 | 0.00 | 0.47 | 0.04 | 100 | 1014.5 |
| 20260905082625 | 55 | 0 | 0.0 | 0.0 | 0.00 | 0.47 | 0.04 | 100 | 1014.5 |
| 20260905082310 | 55 | 0 | 0.0 | 0.0 | 0.00 | 0.47 | 0.04 | 100 | 1014.4 |
| 20260905082108 | 55 | 0 | 0.0 | 0.0 | 0.00 | 0.47 | 0.04 | 100 | 1014.5 |
| 20260905081803 | 55 | 0 | 0.0 | 0.0 | 0.00 | 0.47 | 0.04 | 100 | 1014.5 |
| 20260905081551 | 55 | 0 | 0.0 | 0.0 | 0.00 | 0.47 | 0.04 | 100 | 1014.4 |
| 20260905081256 | 55 | 0 | 0.0 | 0.0 | 0.00 | 0.47 | 0.04 | 100 | 1014.4 |
| 20260905081034 | 55 | 0 | 0.0 | 0.0 | 0.00 | 0.47 | 0.04 | 100 | 1014.3 |
| 20260905080749 | 54 | 0 | 0.0 | 0.0 | 0.00 | 0.66 | 0.04 | 100 | 1014.4 |
| 20260905080517 | 54 | 0 | 0.0 | 0.0 | 0.00 | 0.66 | 0.04 | 100 | 1014.3 |
| 20260905080242 | 54 | 0 | 0.0 | 0.0 | 0.00 | 0.66 | 0.04 | 100 | 1014.4 |
| 20260905080000 | 54 | 0 | 0.0 | 0.0 | 0.00 | 0.66 | 0.04 | 100 | 1014.4 |
| 20260905075735 | 54 | 0 | 0.0 | 0.0 | 0.00 | 0.66 | 0.04 | 100 | 1014.4 |
| 20260905075443 | 54 | 0 | 0.0 | 0.0 | 0.00 | 0.66 | 0.04 | 100 | 1014.4 |
| 20260905074926 | 54 | 0 | 0.0 | 0.0 | 0.00 | 0.66 | 0.04 | 100 | 1014.4 |
| 20260905074721 | 54 | 0 | 0.0 | 0.0 | 0.00 | 0.66 | 0.04 | 100 | 1014.3 |
| 20260905074409 | 54 | 0 | 0.0 | 0.0 | 0.00 | 0.66 | 0.04 | 100 | 1014.3 |
| 20260905073852 | 54 | 0 | 0.0 | 0.0 | 0.00 | 0.66 | 0.04 | 100 | 1014.2 |
| 20260905073707 | 54 | 0 | 0.0 | 0.0 | 0.00 | 0.66 | 0.04 | 100 | 1014.2 |
| 20260905073200 | 55 | 0 | 0.0 | 0.0 | 0.00 | 0.66 | 0.04 | 100 | 1014.1 |
| 20260905072818 | 55 | 0 | 0.0 | 0.0 | 0.00 | 0.66 | 0.04 | 100 | 1014.1 |
| 20260905072653 | 55 | 0 | 0.0 | 0.0 | 0.00 | 0.66 | 0.04 | 100 | 1014.1 |
| 20260905072301 | 55 | 0 | 0.0 | 0.0 | 0.00 | 0.66 | 0.04 | 100 | 1014.1 |
| 20260905072146 | 55 | 0 | 0.0 | 0.0 | 0.00 | 0.66 | 0.04 | 100 | 1014.1 |
| 20260905071744 | 55 | 0 | 0.0 | 0.0 | 0.00 | 0.66 | 0.04 | 100 | 1014.0 |
| 20260905071639 | 55 | 0 | 0.0 | 0.0 | 0.00 | 0.66 | 0.04 | 100 | 1014.0 |
| 20260905071227 | 55 | 0 | 0.0 | 0.0 | 0.00 | 0.66 | 0.04 | 100 | 1014.0 |
| 20260905071132 | 55 | 0 | 0.0 | 0.0 | 0.00 | 0.66 | 0.04 | 100 | 1014.0 |
| 20260905070710 | 56 | 0 | 0.0 | 0.0 | 0.00 | 0.82 | 0.04 | 100 | 1014.1 |
| 20260905070625 | 56 | 0 | 0.0 | 0.0 | 0.00 | 0.82 | 0.04 | 100 | 1014.0 |
| 20260905070153 | 56 | 0 | 0.0 | 0.0 | 0.00 | 0.82 | 0.04 | 100 | 1014.0 |
| 20260905065636 | 56 | 0 | 0.0 | 0.0 | 0.00 | 0.82 | 0.04 | 100 | 1014.0 |
| 20260905065611 | 56 | 0 | 0.0 | 0.0 | 0.00 | 0.82 | 0.04 | 100 | 1014.0 |
| 20260905065104 | 56 | 0 | 0.0 | 0.0 | 0.00 | 0.82 | 0.04 | 100 | 1013.9 |
| 20260905064557 | 56 | 0 | 0.0 | 0.0 | 0.00 | 0.82 | 0.04 | 100 | 1013.9 |
| 20260905064045 | 56 | 0 | 0.0 | 0.0 | 0.00 | 0.82 | 0.04 | 100 | 1013.9 |
| 20260905063543 | 56 | 0 | 0.0 | 0.0 | 0.00 | 0.82 | 0.04 | 100 | 1013.8 |
| 20260905063528 | 56 | 0 | 0.0 | 0.0 | 0.00 | 0.82 | 0.04 | 100 | 1013.9 |
| 20260905063036 | 56 | 0 | 0.0 | 0.0 | 0.00 | 0.82 | 0.04 | 100 | 1013.9 |
| 20260905063011 | 56 | 0 | 0.0 | 0.0 | 0.00 | 0.82 | 0.04 | 100 | 1013.9 |
| 20260905062529 | 56 | 0 | 0.0 | 0.0 | 0.00 | 0.82 | 0.04 | 100 | 1013.9 |
| 20260905062022 | 56 | 0 | 0.0 | 0.0 | 0.00 | 0.82 | 0.04 | 100 | 1014.1 |
| 20260905061937 | 56 | 0 | 0.0 | 0.0 | 0.00 | 0.82 | 0.04 | 100 | 1014.1 |
| 20260905061515 | 56 | 0 | 0.0 | 0.0 | 0.00 | 0.82 | 0.04 | 100 | 1014.0 |
| 20260905061420 | 56 | 0 | 0.0 | 0.0 | 0.00 | 0.82 | 0.04 | 100 | 1014.1 |
| 20260905061008 | 56 | 0 | 0.0 | 0.0 | 0.00 | 0.82 | 0.04 | 100 | 1014.0 |
| 20260905060903 | 56 | 0 | 0.0 | 0.0 | 0.00 | 0.82 | 0.04 | 100 | 1014.0 |
| 20260905060501 | 56 | 0 | 0.0 | 0.0 | 0.00 | 0.82 | 0.04 | 100 | 1014.0 |
| 20260905060346 | 56 | 0 | 0.0 | 0.0 | 0.00 | 0.82 | 0.04 | 100 | 1014.0 |
| 20260905055954 | 56 | 0 | 0.0 | 0.0 | 0.00 | 0.82 | 0.04 | 100 | 1013.9 |
| 20260905055830 | 56 | 0 | 0.0 | 0.0 | 0.00 | 0.82 | 0.04 | 100 | 1013.8 |
| 20260905055447 | 56 | 0 | 0.0 | 0.0 | 0.00 | 0.82 | 0.04 | 100 | 1013.8 |
| 20260905055312 | 56 | 0 | 0.0 | 0.0 | 0.00 | 0.82 | 0.04 | 100 | 1013.8 |
| 20260905054940 | 56 | 0 | 0.0 | 0.0 | 0.00 | 0.82 | 0.04 | 100 | 1013.8 |
| 20260905054755 | 56 | 0 | 0.0 | 0.0 | 0.00 | 0.82 | 0.04 | 100 | 1013.8 |
| 20260905054433 | 56 | 0 | 0.0 | 0.0 | 0.00 | 0.82 | 0.04 | 100 | 1013.9 |
| 20260905054238 | 56 | 0 | 0.0 | 0.0 | 0.00 | 0.82 | 0.04 | 100 | 1013.9 |
| 20260905053926 | 56 | 0 | 0.0 | 0.0 | 0.00 | 0.82 | 0.04 | 100 | 1013.9 |
| 20260905053721 | 56 | 0 | 0.0 | 0.0 | 0.00 | 0.82 | 0.04 | 100 | 1013.9 |
| 20260905053419 | 56 | 0 | 0.0 | 0.0 | 0.00 | 0.82 | 0.04 | 100 | 1013.8 |
| 20260905053204 | 56 | 0 | 0.0 | 0.0 | 0.00 | 0.82 | 0.04 | 100 | 1013.9 |
| 20260905052912 | 56 | 0 | 0.0 | 0.0 | 0.00 | 0.82 | 0.04 | 100 | 1013.9 |
| 20260905052405 | 56 | 0 | 0.0 | 0.0 | 0.00 | 0.82 | 0.04 | 100 | 1013.8 |
| 20260905052130 | 57 | 0 | 0.0 | 0.0 | 0.00 | 0.82 | 0.04 | 100 | 1013.9 |
| 20260905051859 | 56 | 0 | 0.0 | 0.0 | 0.00 | 0.82 | 0.04 | 100 | 1013.8 |
| 20260905051614 | 57 | 0 | 0.0 | 0.0 | 0.00 | 0.82 | 0.04 | 100 | 1013.8 |
| 20260905051351 | 57 | 0 | 0.0 | 0.0 | 0.00 | 0.82 | 0.04 | 100 | 1013.8 |
| 20260905051056 | 57 | 0 | 0.0 | 0.0 | 0.00 | 0.82 | 0.04 | 100 | 1013.8 |
| 20260905050844 | 56 | 0 | 0.0 | 0.0 | 0.00 | 0.82 | 0.04 | 100 | 1013.8 |
| 20260905050539 | 56 | 0 | 0.0 | 0.0 | 0.00 | 0.83 | 0.04 | 100 | 1013.8 |
| 20260905050022 | 56 | 0 | 0.0 | 0.0 | 0.00 | 0.83 | 0.04 | 100 | 1013.7 |
| 20260905045830 | 56 | 0 | 0.0 | 0.0 | 0.00 | 0.83 | 0.04 | 100 | 1013.7 |
| 20260905045505 | 56 | 0 | 0.0 | 0.0 | 0.00 | 0.83 | 0.04 | 100 | 1013.7 |
| 20260905045323 | 56 | 0 | 0.0 | 0.0 | 0.00 | 0.83 | 0.04 | 100 | 1013.6 |
| 20260905044948 | 56 | 0 | 0.0 | 0.0 | 0.00 | 0.83 | 0.04 | 100 | 1013.7 |
| 20260905044816 | 56 | 0 | 0.0 | 0.0 | 0.00 | 0.83 | 0.04 | 100 | 1013.7 |
| 20260905044431 | 56 | 0 | 0.0 | 0.0 | 0.00 | 0.83 | 0.04 | 100 | 1013.6 |
| 20260905044310 | 56 | 0 | 0.0 | 0.0 | 0.00 | 0.83 | 0.04 | 100 | 1013.6 |
| 20260905043914 | 56 | 0 | 0.0 | 0.0 | 0.00 | 0.83 | 0.04 | 100 | 1013.6 |
| 20260905043802 | 56 | 0 | 0.0 | 0.0 | 0.00 | 0.83 | 0.04 | 100 | 1013.6 |
| 20260905043357 | 56 | 0 | 0.0 | 0.0 | 0.00 | 0.83 | 0.04 | 99 | 1013.5 |
| 20260905043255 | 56 | 0 | 0.0 | 0.0 | 0.00 | 0.83 | 0.04 | 99 | 1013.5 |
| 20260905042841 | 56 | 0 | 0.0 | 0.0 | 0.00 | 0.83 | 0.04 | 99 | 1013.5 |
| 20260905042748 | 56 | 0 | 0.0 | 0.0 | 0.00 | 0.83 | 0.04 | 99 | 1013.5 |
| 20260905042323 | 56 | 0 | 0.0 | 0.0 | 0.00 | 0.83 | 0.04 | 99 | 1013.5 |
| 20260905042241 | 56 | 0 | 0.0 | 0.0 | 0.00 | 0.83 | 0.04 | 99 | 1013.5 |
| 20260905041806 | 56 | 0 | 0.0 | 0.0 | 0.00 | 0.83 | 0.04 | 99 | 1013.4 |
| 20260905041734 | 56 | 0 | 0.0 | 0.0 | 0.00 | 0.83 | 0.04 | 99 | 1013.4 |
| 20260905041249 | 57 | 0 | 0.0 | 0.0 | 0.00 | 0.83 | 0.04 | 99 | 1013.3 |
| 20260905041227 | 57 | 0 | 0.0 | 0.0 | 0.00 | 0.83 | 0.04 | 99 | 1013.4 |
| 20260905040734 | 57 | 0 | 0.0 | 0.0 | 0.00 | 0.84 | 0.04 | 99 | 1013.3 |
| 20260905040720 | 57 | 0 | 0.0 | 0.0 | 0.00 | 0.84 | 0.04 | 99 | 1013.3 |
| 20260905040213 | 57 | 0 | 0.0 | 0.0 | 0.00 | 0.84 | 0.04 | 99 | 1013.2 |
| 20260905035706 | 57 | 0 | 0.0 | 0.0 | 0.00 | 0.84 | 0.04 | 98 | 1013.2 |
| 20260905035658 | 57 | 0 | 0.0 | 0.0 | 0.00 | 0.84 | 0.04 | 98 | 1013.2 |
| 20260905035159 | 57 | 0 | 0.0 | 0.0 | 0.00 | 0.84 | 0.04 | 98 | 1013.2 |
| 20260905035141 | 57 | 0 | 0.0 | 0.0 | 0.00 | 0.84 | 0.04 | 98 | 1013.2 |
| 20260905034652 | 57 | 0 | 0.0 | 0.0 | 0.00 | 0.84 | 0.04 | 98 | 1013.2 |
| 20260905034624 | 57 | 0 | 0.0 | 0.0 | 0.00 | 0.84 | 0.04 | 98 | 1013.1 |
| 20260905034146 | 58 | 0 | 0.0 | 0.0 | 0.00 | 0.84 | 0.04 | 98 | 1013.1 |
| 20260905034107 | 58 | 0 | 0.0 | 0.0 | 0.00 | 0.84 | 0.04 | 98 | 1013.1 |
| 20260905033638 | 58 | 0 | 0.0 | 0.0 | 0.00 | 0.84 | 0.04 | 98 | 1013.0 |
| 20260905033550 | 58 | 0 | 0.0 | 0.0 | 0.00 | 0.84 | 0.04 | 98 | 1013.0 |
| 20260905033131 | 58 | 0 | 0.0 | 0.0 | 0.00 | 0.84 | 0.04 | 98 | 1013.1 |
| 20260905033033 | 58 | 0 | 0.0 | 0.0 | 0.00 | 0.84 | 0.04 | 98 | 1013.1 |
| 20260905032624 | 58 | 0 | 0.0 | 0.0 | 0.00 | 0.84 | 0.04 | 98 | 1012.9 |
| 20260905032516 | 58 | 0 | 0.0 | 0.0 | 0.00 | 0.84 | 0.04 | 98 | 1012.9 |
| 20260905031958 | 58 | 0 | 0.0 | 0.0 | 0.00 | 0.84 | 0.04 | 97 | 1012.8 |
| 20260905031610 | 58 | 0 | 0.0 | 0.0 | 0.00 | 0.84 | 0.04 | 97 | 1012.7 |
| 20260905031442 | 58 | 0 | 0.0 | 0.0 | 0.00 | 0.84 | 0.04 | 97 | 1012.8 |
| 20260905031103 | 58 | 0 | 0.0 | 0.0 | 0.00 | 0.84 | 0.04 | 97 | 1012.7 |
| 20260905030925 | 58 | 0 | 0.0 | 0.0 | 0.00 | 0.84 | 0.04 | 97 | 1012.7 |
| 20260905030556 | 58 | 0 | 0.0 | 0.0 | 0.00 | 0.96 | 0.04 | 97 | 1012.6 |
| 20260905030408 | 58 | 0 | 0.0 | 0.0 | 0.00 | 0.96 | 0.04 | 96 | 1012.6 |
| 20260905030049 | 58 | 0 | 0.0 | 0.0 | 0.00 | 0.96 | 0.04 | 96 | 1012.6 |
| 20260905025850 | 58 | 0 | 0.0 | 0.0 | 0.00 | 0.96 | 0.04 | 96 | 1012.7 |
| 20260905025542 | 58 | 0 | 0.0 | 0.0 | 0.00 | 0.96 | 0.04 | 96 | 1012.6 |
| 20260905025333 | 58 | 0 | 0.0 | 0.0 | 0.00 | 0.96 | 0.04 | 96 | 1012.6 |
| 20260905025035 | 59 | 0 | 0.0 | 0.0 | 0.00 | 0.96 | 0.04 | 96 | 1012.6 |
| 20260905024816 | 59 | 0 | 0.0 | 0.0 | 0.00 | 0.96 | 0.04 | 96 | 1012.6 |
| 20260905024528 | 59 | 0 | 0.0 | 0.0 | 0.00 | 0.96 | 0.04 | 96 | 1012.6 |
| 20260905024259 | 59 | 0 | 0.0 | 0.0 | 0.00 | 0.96 | 0.04 | 96 | 1012.7 |
| 20260905024021 | 59 | 0 | 0.0 | 0.0 | 0.00 | 0.96 | 0.04 | 96 | 1012.7 |
| 20260905023742 | 59 | 0 | 0.0 | 0.0 | 0.00 | 0.96 | 0.04 | 95 | 1013.0 |
| 20260905023514 | 59 | 0 | 0.0 | 0.0 | 0.00 | 0.96 | 0.04 | 95 | 1012.7 |
| 20260905023225 | 59 | 0 | 0.0 | 0.0 | 0.00 | 0.96 | 0.04 | 95 | 1012.9 |
| 20260905023007 | 59 | 0 | 0.0 | 0.0 | 0.00 | 0.96 | 0.04 | 95 | 1013.0 |
| 20260905022708 | 59 | 0 | 0.0 | 0.0 | 0.00 | 0.96 | 0.04 | 95 | 1012.9 |
| 20260905022500 | 59 | 0 | 0.0 | 0.0 | 0.00 | 0.96 | 0.04 | 95 | 1012.9 |
| 20260905022151 | 59 | 0 | 0.0 | 0.0 | 0.00 | 0.96 | 0.04 | 95 | 1012.9 |
| 20260905021953 | 60 | 0 | 0.0 | 0.0 | 0.00 | 0.96 | 0.04 | 95 | 1012.9 |
| 20260905021634 | 59 | 0 | 0.0 | 0.0 | 0.01 | 0.96 | 0.04 | 95 | 1012.9 |
| 20260905021446 | 60 | 0 | 0.0 | 0.0 | 0.01 | 0.96 | 0.04 | 95 | 1012.9 |
| 20260905021118 | 60 | 0 | 0.0 | 0.0 | 0.01 | 0.96 | 0.04 | 94 | 1012.7 |
| 20260905020939 | 60 | 0 | 0.0 | 0.0 | 0.01 | 0.96 | 0.04 | 94 | 1012.8 |
| 20260905020600 | 60 | 0 | 0.0 | 0.0 | 0.01 | 1.09 | 0.04 | 94 | 1012.7 |
| 20260905020432 | 60 | 0 | 0.0 | 0.0 | 0.01 | 1.09 | 0.04 | 94 | 1012.7 |
| 20260905020043 | 60 | 0 | 0.0 | 0.0 | 0.01 | 1.09 | 0.04 | 94 | 1012.7 |
| 20260905015924 | 60 | 0 | 0.0 | 0.0 | 0.01 | 1.09 | 0.04 | 94 | 1012.7 |
| 20260905015526 | 60 | 0 | 0.0 | 0.0 | 0.01 | 1.09 | 0.04 | 94 | 1012.6 |
| 20260905015418 | 60 | 0 | 0.0 | 0.0 | 0.01 | 1.09 | 0.04 | 94 | 1012.6 |
| 20260905015009 | 60 | 0 | 0.0 | 0.0 | 0.01 | 1.09 | 0.04 | 93 | 1012.6 |
| 20260905014910 | 61 | 0 | 0.0 | 0.0 | 0.01 | 1.09 | 0.04 | 93 | 1012.6 |
| 20260905014452 | 61 | 0 | 0.0 | 0.0 | 0.02 | 1.09 | 0.04 | 93 | 1012.5 |
| 20260905014404 | 61 | 0 | 0.0 | 0.0 | 0.02 | 1.09 | 0.04 | 93 | 1012.5 |
| 20260905013935 | 61 | 0 | 0.0 | 0.0 | 0.02 | 1.09 | 0.04 | 93 | 1012.5 |
| 20260905013856 | 60 | 0 | 0.0 | 0.0 | 0.02 | 1.09 | 0.04 | 93 | 1012.5 |
| 20260905013418 | 61 | 0 | 0.0 | 0.0 | 0.02 | 1.09 | 0.04 | 94 | 1012.5 |
| 20260905013349 | 61 | 0 | 0.0 | 0.0 | 0.02 | 1.09 | 0.04 | 94 | 1012.5 |
| 20260905012901 | 61 | 0 | 0.0 | 0.0 | 0.02 | 1.09 | 0.04 | 93 | 1012.5 |
| 20260905012842 | 61 | 0 | 0.0 | 0.0 | 0.02 | 1.09 | 0.04 | 94 | 1012.5 |
| 20260905012344 | 61 | 0 | 0.0 | 0.0 | 0.03 | 1.09 | 0.04 | 94 | 1012.5 |
| 20260905011828 | 61 | 0 | 0.0 | 0.0 | 0.03 | 1.09 | 0.04 | 94 | 1012.4 |
| 20260905011310 | 61 | 0 | 0.0 | 0.0 | 0.03 | 1.09 | 0.04 | 94 | 1012.4 |
| 20260905010814 | 61 | 0 | 0.0 | 0.0 | 0.03 | 1.09 | 0.03 | 95 | 1012.3 |
| 20260905010753 | 61 | 0 | 0.0 | 0.0 | 0.04 | 1.06 | 0.03 | 95 | 1012.3 |
| 20260905010307 | 61 | 0 | 0.0 | 0.0 | 0.04 | 1.06 | 0.03 | 95 | 1012.4 |
| 20260905010237 | 61 | 0 | 0.0 | 0.0 | 0.04 | 1.06 | 0.03 | 95 | 1012.4 |
| 20260905005800 | 61 | 0 | 0.0 | 0.0 | 0.04 | 1.06 | 0.03 | 95 | 1012.4 |
| 20260905005719 | 61 | 0 | 0.0 | 0.0 | 0.04 | 1.06 | 0.03 | 95 | 1012.4 |
| 20260905005253 | 61 | 0 | 0.0 | 0.0 | 0.04 | 1.06 | 0.03 | 95 | 1012.4 |
| 20260905005202 | 61 | 0 | 0.0 | 0.0 | 0.04 | 1.06 | 0.03 | 95 | 1012.4 |
| 20260905004746 | 61 | 0 | 0.0 | 0.0 | 0.04 | 1.06 | 0.03 | 95 | 1012.3 |
| 20260905004645 | 61 | 0 | 0.0 | 0.0 | 0.04 | 1.06 | 0.03 | 95 | 1012.3 |
| 20260905004239 | 61 | 0 | 0.0 | 0.0 | 0.04 | 1.06 | 0.02 | 96 | 1012.3 |
| 20260905004128 | 61 | 0 | 0.0 | 0.0 | 0.04 | 1.06 | 0.02 | 96 | 1012.3 |
| 20260905003733 | 61 | 0 | 0.0 | 0.0 | 0.05 | 1.06 | 0.02 | 96 | 1012.3 |
| 20260905003611 | 61 | 0 | 0.0 | 0.0 | 0.05 | 1.06 | 0.02 | 96 | 1012.3 |
| 20260905003225 | 61 | 0 | 0.0 | 0.0 | 0.05 | 1.06 | 0.02 | 96 | 1012.3 |
| 20260905003054 | 61 | 0 | 0.0 | 0.0 | 0.05 | 1.06 | 0.02 | 96 | 1012.3 |
| 20260905002718 | 61 | 0 | 0.0 | 0.0 | 0.04 | 1.06 | 0.02 | 96 | 1012.3 |
| 20260905002537 | 61 | 0 | 0.0 | 0.0 | 0.04 | 1.06 | 0.02 | 96 | 1012.3 |
| 20260905002211 | 61 | 0 | 0.0 | 0.0 | 0.04 | 1.06 | 0.01 | 96 | 1012.3 |
| 20260905002021 | 61 | 0 | 0.0 | 0.0 | 0.04 | 1.06 | 0.01 | 96 | 1012.3 |
| 20260905001704 | 61 | 0 | 0.0 | 0.0 | 0.03 | 1.06 | 0.01 | 96 | 1012.2 |
| 20260905001503 | 61 | 0 | 0.0 | 0.0 | 0.03 | 1.06 | 0.01 | 96 | 1012.2 |
| 20260905001157 | 61 | 0 | 0.0 | 0.0 | 0.03 | 1.06 | 0.01 | 96 | 1012.1 |
| 20260905000946 | 61 | 0 | 0.0 | 0.0 | 0.03 | 1.06 | 0.00 | 96 | 1012.1 |
| 20260905000650 | 60 | 0 | 0.0 | 0.0 | 0.02 | 1.06 | 0.00 | 96 | 1012.1 |
| 20260905000432 | 60 | 0 | 0.0 | 0.0 | 0.02 | 1.06 | 0.00 | 96 | 1012.1 |
| 20260905000143 | 60 | 0 | 0.0 | 0.0 | 0.02 | 1.06 | 1.06 | 96 | 1012.1 |
| 20260904235912 | 60 | 0 | 0.0 | 0.0 | 0.02 | 1.05 | 1.05 | 95 | 1012.1 |
| 20260904235636 | 60 | 0 | 0.0 | 0.0 | 0.02 | 1.05 | 1.05 | 95 | 1012.1 |
| 20260904235355 | 60 | 0 | 0.0 | 0.0 | 0.02 | 1.05 | 1.05 | 95 | 1012.1 |
| 20260904235129 | 60 | 0 | 0.0 | 0.0 | 0.02 | 1.05 | 1.05 | 95 | 1012.0 |
| 20260904234321 | 60 | 0 | 0.0 | 0.0 | 0.01 | 1.05 | 1.05 | 95 | 1012.0 |
| 20260904234115 | 61 | 0 | 0.0 | 0.0 | 0.01 | 1.04 | 1.04 | 95 | 1012.0 |
| 20260904233804 | 61 | 0 | 0.0 | 0.0 | 0.01 | 1.04 | 1.04 | 95 | 1012.0 |
| 20260904233608 | 60 | 0 | 0.0 | 0.0 | 0.00 | 1.04 | 1.04 | 95 | 1012.0 |
| 20260904233247 | 61 | 0 | 0.0 | 0.0 | 0.00 | 1.04 | 1.04 | 95 | 1011.9 |
| 20260904233101 | 61 | 0 | 0.0 | 0.0 | 0.00 | 1.04 | 1.04 | 95 | 1011.9 |
| 20260904232554 | 61 | 0 | 0.0 | 4.0 | 0.00 | 1.04 | 1.03 | 95 | 1011.8 |
| 20260904232213 | 61 | 0 | 0.0 | 4.0 | 0.00 | 1.04 | 1.03 | 95 | 1011.8 |
| 20260904232047 | 60 | 0 | 0.0 | 4.0 | 0.00 | 1.04 | 1.03 | 94 | 1011.9 |
| 20260904231656 | 61 | 0 | 0.0 | 4.0 | 0.01 | 1.04 | 1.03 | 94 | 1011.9 |
| 20260904231540 | 61 | 0 | 0.0 | 4.0 | 0.01 | 1.04 | 1.03 | 94 | 1011.9 |
| 20260904231140 | 61 | 315 | 2.0 | 4.0 | 0.01 | 1.04 | 1.03 | 95 | 1011.9 |
| 20260904231033 | 61 | 306 | 1.0 | 3.0 | 0.01 | 1.04 | 1.03 | 95 | 1011.8 |
| 20260904230623 | 60 | 0 | 0.0 | 0.0 | 0.01 | 1.03 | 1.03 | 94 | 1011.8 |
| 20260904230526 | 60 | 0 | 0.0 | 5.0 | 0.01 | 1.03 | 1.03 | 94 | 1011.8 |
| 20260904230105 | 61 | 316 | 1.0 | 5.0 | 0.01 | 1.03 | 1.03 | 94 | 1011.7 |
| 20260904230019 | 60 | 316 | 3.0 | 5.0 | 0.01 | 1.03 | 1.03 | 94 | 1011.7 |
| 20260904225548 | 61 | 0 | 0.0 | 5.0 | 0.03 | 1.03 | 1.03 | 94 | 1011.6 |
| 20260904225513 | 61 | 0 | 0.0 | 5.0 | 0.03 | 1.03 | 1.03 | 94 | 1011.7 |
| 20260904225031 | 61 | 0 | 0.0 | 5.0 | 0.03 | 1.03 | 1.03 | 94 | 1011.7 |
| 20260904224514 | 61 | 0 | 0.0 | 3.0 | 0.04 | 1.03 | 1.03 | 94 | 1011.6 |
| 20260904224458 | 61 | 0 | 0.0 | 3.0 | 0.04 | 1.03 | 1.03 | 94 | 1011.6 |
| 20260904223957 | 60 | 0 | 0.0 | 3.0 | 0.04 | 1.03 | 1.03 | 94 | 1011.6 |
| 20260904223951 | 60 | 0 | 0.0 | 3.0 | 0.04 | 1.03 | 1.03 | 94 | 1011.6 |
| 20260904223444 | 60 | 0 | 0.0 | 0.0 | 0.04 | 1.03 | 1.03 | 94 | 1011.6 |
| 20260904223440 | 60 | 0 | 0.0 | 0.0 | 0.04 | 1.03 | 1.03 | 94 | 1011.6 |
| 20260904222937 | 60 | 0 | 0.0 | 0.0 | 0.04 | 1.03 | 1.03 | 94 | 1011.4 |
| 20260904222923 | 60 | 0 | 0.0 | 0.0 | 0.04 | 1.03 | 1.03 | 94 | 1011.5 |
| 20260904222430 | 60 | 0 | 0.0 | 0.0 | 0.04 | 1.03 | 1.03 | 94 | 1011.4 |
| 20260904222406 | 60 | 0 | 0.0 | 0.0 | 0.04 | 1.03 | 1.03 | 94 | 1011.4 |
| 20260904221923 | 60 | 0 | 0.0 | 0.0 | 0.04 | 1.03 | 1.03 | 94 | 1011.5 |
| 20260904221332 | 60 | 0 | 0.0 | 0.0 | 0.04 | 1.03 | 1.03 | 93 | 1011.5 |
| 20260904220909 | 60 | 0 | 0.0 | 0.0 | 0.04 | 1.03 | 1.02 | 93 | 1011.5 |
| 20260904220815 | 60 | 0 | 0.0 | 0.0 | 0.04 | 1.03 | 1.02 | 93 | 1011.4 |
| 20260904220402 | 60 | 0 | 0.0 | 0.0 | 0.04 | 1.02 | 1.02 | 93 | 1011.4 |
| 20260904220258 | 60 | 0 | 0.0 | 0.0 | 0.04 | 1.02 | 1.02 | 93 | 1011.5 |
| 20260904215855 | 60 | 0 | 0.0 | 0.0 | 0.04 | 1.02 | 1.02 | 92 | 1011.4 |
| 20260904215741 | 60 | 0 | 0.0 | 0.0 | 0.02 | 1.02 | 1.02 | 92 | 1011.5 |
| 20260904215348 | 60 | 0 | 0.0 | 0.0 | 0.02 | 1.00 | 1.00 | 92 | 1011.5 |
| 20260904215224 | 60 | 0 | 0.0 | 0.0 | 0.02 | 1.00 | 1.00 | 92 | 1011.5 |
| 20260904214841 | 60 | 0 | 0.0 | 0.0 | 0.02 | 1.00 | 1.00 | 91 | 1011.5 |
| 20260904214707 | 60 | 0 | 0.0 | 0.0 | 0.01 | 1.00 | 1.00 | 91 | 1011.5 |
| 20260904214150 | 61 | 0 | 0.0 | 4.0 | 0.01 | 0.99 | 0.99 | 91 | 1011.4 |
| 20260904213829 | 61 | 0 | 0.0 | 4.0 | 0.01 | 0.99 | 0.99 | 90 | 1011.4 |
| 20260904213633 | 61 | 0 | 0.0 | 4.0 | 0.01 | 0.99 | 0.99 | 90 | 1011.4 |
| 20260904213320 | 61 | 0 | 0.0 | 4.0 | 0.01 | 0.99 | 0.99 | 90 | 1011.3 |
| 20260904212813 | 61 | 0 | 0.0 | 4.0 | 0.01 | 0.99 | 0.99 | 89 | 1011.0 |
| 20260904212559 | 61 | 306 | 4.0 | 4.0 | 0.01 | 0.99 | 0.99 | 89 | 1011.1 |
| 20260904212306 | 61 | 0 | 0.0 | 3.0 | 0.01 | 0.99 | 0.99 | 88 | 1011.0 |
| 20260904212042 | 62 | 0 | 0.0 | 3.0 | 0.01 | 0.99 | 0.99 | 88 | 1011.0 |
| 20260904211759 | 62 | 0 | 0.0 | 3.0 | 0.00 | 0.99 | 0.99 | 87 | 1011.0 |
| 20260904211525 | 62 | 0 | 0.0 | 3.0 | 0.00 | 0.99 | 0.99 | 87 | 1011.0 |
| 20260904211252 | 62 | 0 | 0.0 | 3.0 | 0.00 | 0.99 | 0.99 | 86 | 1011.0 |
| 20260904211008 | 62 | 0 | 0.0 | 3.0 | 0.00 | 0.99 | 0.98 | 86 | 1011.0 |
| 20260904210745 | 62 | 267 | 1.0 | 3.0 | 0.00 | 0.99 | 0.98 | 86 | 1010.9 |
| 20260904210451 | 62 | 0 | 0.0 | 0.0 | 0.00 | 0.99 | 0.98 | 86 | 1011.0 |
| 20260904210238 | 62 | 0 | 0.0 | 4.0 | 0.00 | 0.99 | 0.98 | 86 | 1010.9 |
| 20260904205934 | 62 | 0 | 0.0 | 4.0 | 0.00 | 0.99 | 0.98 | 86 | 1010.9 |
| 20260904205417 | 62 | 281 | 3.0 | 4.0 | 0.00 | 0.99 | 0.98 | 85 | 1010.9 |
| 20260904205224 | 62 | 0 | 0.0 | 4.0 | 0.00 | 0.99 | 0.98 | 85 | 1010.9 |
| 20260904204900 | 62 | 0 | 0.0 | 4.0 | 0.00 | 0.99 | 0.98 | 85 | 1010.9 |
| 20260904204717 | 63 | 247 | 2.0 | 4.0 | 0.00 | 0.99 | 0.98 | 84 | 1010.9 |
| 20260904204343 | 63 | 247 | 2.0 | 5.0 | 0.00 | 0.99 | 0.98 | 84 | 1010.9 |
| 20260904204210 | 63 | 282 | 2.0 | 5.0 | 0.00 | 0.99 | 0.98 | 84 | 1010.9 |
| 20260904203703 | 63 | 296 | 1.0 | 5.0 | 0.00 | 0.99 | 0.98 | 84 | 1010.9 |
| 20260904203309 | 63 | 296 | 2.0 | 5.0 | 0.00 | 0.99 | 0.98 | 83 | 1010.9 |